User: anonymous   Login
Location: Castifao
(42.5040°N, 9.1124°E)
Time: 20:55:00
(UTC+00:00)
Language:

Cosmos 1953 Rocket - Orbit

View from above orbital plane
View from above orbital plane
View from above satellite
View from above satellite

Ground track
Ground track

The orbit data is extracted from the following two-line orbital elements,

1 19211U 88050B   20088.05944035 +.00000072 +00000-0 +58942-5 0  9995
2 19211 082.5276 333.1683 0022277 017.0402 099.3378 14.83064368696123
Epoch (UTC): 28 March 2020 01:25:35
Eccentricity: 0.0022277
inclination: 82.5276°
perigee height: 604 km
apogee height: 635 km
right ascension of ascending node: 333.1683°
argument of perigee: 17.0402°
revolutions per day: 14.83064368
mean anomaly at epoch: 99.3378°
orbit number at epoch: 69612

The dashed part of the orbit path shows where the satellite is in the earth's shadow,  

DLR